Regional Weather Roundup
Issued by NWS

Home | Current Version | Previous Version | Text Only | Print | Product List | Glossary Off
Versions: 1 2 3 4 5 6 7 8 9 10 11 12 13 14 15 16 17 18 19 20 21 22 23 24 25 26 27 28 29 30 31 32 33 34 35 36 37 38 39 40 41 42 43 44 45 46 47 48 49 50

000
ASUS43 KDMX 040407
RWRIA

WEATHER ROUNDUP FOR IOWA
NATIONAL WEATHER SERVICE DES MOINES IA
1100 PM CDT MON AUG 03 2015

NOTE: "FAIR" INDICATES FEW OR NO CLOUDS BELOW 12,000 FEET WITH NO
SIGNIFICANT WEATHER AND/OR OBSTRUCTIONS TO VISIBILITY.

* - THESE STATIONS ARE NOT NWS STATIONS...THUS NOT UNDER NWS
QUALITY CONTROL.  THEY ALSO DO NOT REPORT WEATHER SUCH
AS PRECIPITATION OR FOG.

IAZ001>003-012>014-020>022-031>034-043>046-040500-
   NORTHWEST IOWA

CITY           SKY/WX    TMP DP  RH WIND       PRES   REMARKS
CARROLL *      CLEAR     63  61  94 CALM      29.98S
CHEROKEE *     PTCLDY    64  63  94 CALM      29.98S
DENISON *      CLOUDY    64  63  94 CALM      29.97S
LE MARS *      CLEAR     64  63  94 CALM      29.98S
ORANGE CITY *  CLEAR     70  59  68 CALM      29.98S
SHELDON *      CLEAR     61  61 100 CALM      29.97S
SIOUX CITY     MOCLDY    70  62  76 SE5       29.97R
SPENCER        CLEAR     64  59  83 CALM      29.98R
STORM LAKE *   CLEAR     64  59  82 SW5       30.00R
$$

IAZ055>058-069>071-079>083-090>094-040500-
   SOUTHWEST IOWA

CITY           SKY/WX    TMP DP  RH WIND       PRES   REMARKS
ATLANTIC *     MOCLDY    68  66  94 CALM      29.99R
AUDUBON *      MOCLDY    66  63  88 CALM      30.00S
CLARINDA *     CLOUDY    72  66  83 CALM      29.98S
COUNCIL BLFS * CLOUDY    72  64  78 E7        29.98S
CRESTON *      CLOUDY    68  64  88 E3        30.00S
HARLAN  *      MOCLDY    68  68 100 CALM      30.02R
LAMONI         MOCLDY    71  66  84 N5        29.98S
RED OAK *      MOCLDY    70  68  94 NE3       29.98R
SHENANDOAH *   MOCLDY    70  68  94 NE5       29.97R
$$

IAZ047>049-059>061-072>074-084-040500-
   CENTRAL IOWA

CITY           SKY/WX    TMP DP  RH WIND       PRES   REMARKS
AMES           CLEAR     63  60  90 SW3       29.97R
ANKENY *       CLEAR     63  61  94 CALM      29.97S
CHARITON *     CLEAR     68  63  83 E3        29.98S
DES MOINES     PTCLDY    73  57  57 N3        29.96S
GRINNELL*      CLEAR     66  57  72 SW3       29.98S
KNOXVILLE *    PTCLDY    68  61  77 CALM      29.96S
MARSHALLTOWN   CLEAR     65  60  84 CALM      29.96R
PELLA *        CLEAR     64  61  88 CALM      29.98S
PERRY *          N/A     66  63  88 SW3       29.98S
$$

IAZ004>006-015-016-023>025-035-036-040500-
   NORTH CENTRAL IOWA

CITY           SKY/WX    TMP DP  RH WIND       PRES   REMARKS
ALGONA *       CLEAR     68  61  77 CALM      29.97S
CLARION *      CLEAR     61  59  94 CALM      29.97S
ESTHERVILLE    CLEAR     61  57  87 NW5       29.98R
FORT DODGE *   CLEAR     63  57  82 CALM      29.98R
MASON CITY     CLEAR     61  56  83 W3        29.98R
FOREST CITY *  CLEAR     59  59 100 CALM      29.97S
IOWA FALLS *     N/A     63  59  88 CALM      29.98S
$$

IAZ007>011-017>019-026>030-037>042-050>054-066-040500-
   NORTHEAST IOWA

CITY           SKY/WX    TMP DP  RH WIND       PRES   REMARKS
CEDAR RAPIDS   CLEAR     62  60  93 CALM      29.95S
CHARLES CITY * CLEAR     59  59 100 W6        29.97R
CLINTON *      CLEAR     61  57  88 NW7       29.97R
DECORAH *      CLEAR     59  55  88 CALM      29.94S
DUBUQUE        CLEAR     63  56  78 CALM      29.95S
MONTICELLO *   CLEAR     59  57  94 CALM      29.95S
OELWEIN *      CLEAR     61  57  88 W3        29.96S
WATERLOO       CLEAR     62  58  86 CALM      29.95R
$$

IAZ064-065-067-068-078-040500-
   EAST CENTRAL IOWA

CITY           SKY/WX    TMP DP  RH WIND       PRES   REMARKS
DAVENPORT      CLEAR     61  57  87 SW6       29.96R
IOWA CITY      CLEAR     65  59  81 S5        29.96S
MT. PLEASANT * CLEAR     68  57  68 CALM      29.97S
MUSCATINE *    CLEAR     64  57  77 S5        29.96R
QUAD CITIES    CLEAR     64  57  78 SW3       29.95R
$$

IAZ062-063-075>077-085>089-095>099-040500-
   SOUTHEAST IOWA

CITY           SKY/WX    TMP DP  RH WIND       PRES   REMARKS
BURLINGTON     CLEAR     68  61  78 N3        29.97R
FAIRFIELD *    CLEAR     63  59  88 NW3       29.97S
FORT MADISON * CLEAR     66  61  82 CALM      29.98R
KEOKUK *       PTCLDY    70  63  78 N3        29.96R
OSKALOOSA *      N/A     61  59  94 CALM      29.98R
CENTERVILLE *  PTCLDY    68  63  83 NE3       29.99S
OTTUMWA        CLEAR     63  59  87 CALM      29.96R
WASHINGTON *   CLEAR     61  59  94 W3        29.98S
$$

ABBREVIATIONS USED IN REMARKS
   TC - TEMPERATURES IN CELSIUS
  WCI - WIND CHILL INDEX
   HX - HEAT INDEX
  VSB - VISIBILITY
$$



USA.gov is the U.S. government's official web portal to all federal, state and local government web resources and services.